SV2BBO-11 Weather Reports


Display with metric or nautical units.
time (UTC)temp
F
wind
direction
speed
MPH
gust
MPH
rain 1hr
in
rain 24hr
in
rain mn
in
humidity
%
barometer
mb
20260903224554 72 0 0.0 0.0 0.00 0.00 0.00 76 1014.6
20260903224052 72 0 0.0 0.0 0.00 0.00 0.00 77 1014.7
20260903223554 72 0 0.0 0.0 0.00 0.00 0.00 78 1014.7
20260903223052 72 0 0.0 0.0 0.00 0.00 0.00 78 1014.7
20260903220826 72 0 0.0 0.0 0.00 0.00 0.00 78 1014.7
20260903220326 72 0 0.0 0.0 0.00 0.00 0.00 77 1014.7
20260903214326 72 0 0.0 0.0 0.00 0.00 0.00 78 1014.7
20260903212326 71 0 0.0 0.0 0.00 0.00 0.00 78 1014.5
20260903193325 72 0 0.0 0.0 0.00 0.00 0.00 85 1014.3
20260903185325 71 0 0.0 3.0 0.00 0.00 0.00 86 1014.2
20260903184826 71 0 0.0 5.0 0.00 0.00 0.00 86 1014.3
20260903183325 71 0 0.0 4.0 0.00 0.00 0.00 85 1014.4
20260903155339 87 0 0.0 5.0 0.00 0.00 0.00 49 1012.4
20260903120136 92 270 1.0 7.0 0.00 0.00 0.00 48 1013.0
20260903075636 85 326 3.0 9.0 0.00 0.00 0.00 55 1014.9
20260903055900 79 0 0.0 0.0 0.00 0.00 0.00 68 1015.3
20260903054400 78 0 0.0 0.0 0.00 0.00 0.00 72 1015.3
20260903052900 75 0 0.0 0.0 0.00 0.00 0.00 75 1015.5
20260903052400 75 0 0.0 0.0 0.00 0.00 0.00 75 1015.5
20260903051400 74 0 0.0 0.0 0.00 0.00 0.00 78 1015.4
20260903045900 73 0 0.0 0.0 0.00 0.00 0.00 79 1015.5
20260903045400 73 0 0.0 0.0 0.00 0.00 0.00 79 1015.5
20260903044900 73 0 0.0 0.0 0.00 0.00 0.00 79 1015.5
20260903042400 73 0 0.0 0.0 0.00 0.00 0.00 79 1015.1
20260903041900 73 0 0.0 0.0 0.00 0.00 0.00 80 1015.0
20260903041400 73 0 0.0 0.0 0.00 0.00 0.00 79 1015.0
20260903040900 73 0 0.0 0.0 0.00 0.00 0.00 79 1015.0